Location: Henham
(51.9333°N, 0.2500°E)
Time: 14:10:05
(UTC+00:00)

Cosmos 1943 Rocket - Pass Details

Date: 23 October 2019
Orbit: 810 x 845 km, 71.0° (Epoch: 18 November)

Event Time Altitude Azimuth Distance (km) Brightness Sun altitude
Rises 19:17:53 0° 184° (S) 3,345 5.2 -23.5°
Reaches altitude 10° 19:20:24 10° 177° (S) 2,423 4.4 -23.9°
Enters shadow 19:20:38 11° 176° (S) 2,339 4.3 -23.9°
